Wind_Speed
53 55 56 57 58 59 60 60 60 61 62 62 62 62 62 62 61 61 60 59 59 58 58 59 59 58 58 56 53 52 51 51 51 49 50 53 50 48 51 51 50 50 49 51 54 55 57 60 63 66 66 65 65 67 69 69 71 71 68 63 56 54 53 55 57 58 59 59 60 61 62 61 61 65 64 60 58 55 52 47 43 41 41 41 38 40 41 36
53 56 58 60 61 63 64 64 65 66 66 66 66 66 66 66 65 65 64 63 63 62 62 62 62 61 61 60 58 56 56 56 55 54 55 54 51 51 53 53 52 51 50 51 52 54 55 58 61 63 64 64 64 67 67 67 68 67 66 62 57 56 58 60 61 62 62 62 62 65 66 64 64 67 65 61 59 56 53 49 45 43 43 42 41 44 44 41
52 54 56 59 61 63 65 66 68 69 69 70 70 70 70 69 69 69 68 68 67 66 66 66 66 65 64 63 61 60 60 60 59 59 58 55 53 54 54 54 54 52 52 53 52 52 53 57 59 60 60 62 64 67 66 65 66 64 63 60 55 59 62 63 64 65 65 64 65 67 68 66 66 68 66 63 61 58 54 50 47 46 45 45 48 48 45 44
53 55 56 58 60 62 64 66 67 69 71 72 73 73 73 73 73 73 72 72 71 71 70 70 69 69 67 66 64 63 63 63 63 62 59 57 56 56 55 55 56 55 54 55 54 53 53 55 57 58 58 59 62 65 65 65 65 63 60 55 55 61 64 65 67 68 68 67 67 69 69 68 68 70 68 64 61 58 54 51 49 47 47 51 53 50 47 47
56 58 59 60 62 63 64 66 67 69 70 72 73 74 75 76 76 76 76 75 75 75 74 73 73 72 71 69 67 65 66 66 65 64 61 59 57 56 56 56 57 57 57 56 56 56 55 54 54 56 56 57 60 61 62 64 66 63 59 55 57 62 63 66 68 69 70 69 69 69 70 70 71 71 69 64 62 59 55 52 49 47 53 58 56 51 49 49
59 61 62 64 65 66 67 68 69 70 71 72 74 75 76 76 77 77 77 78 77 77 77 76 76 76 74 73 70 68 68 67 66 65 63 61 58 56 56 56 58 59 59 58 58 58 57 56 54 53 54 56 58 58 59 63 65 62 58 58 60 61 62 65 68 69 70 70 70 71 72 73 71 70 67 63 60 58 55 53 50 52 61 64 58 53 49 49
59 61 64 66 68 70 71 72 73 74 74 75 75 76 77 77 78 78 78 78 77 77 77 77 78 77 77 75 72 70 69 68 69 67 65 63 59 57 55 56 58 59 60 60 60 60 59 57 54 53 53 54 56 58 59 62 61 58 57 59 61 62 62 65 67 68 69 70 71 72 74 73 69 68 66 62 59 58 55 54 55 59 66 66 59 54 50 49
61 63 64 66 69 71 73 75 77 78 79 79 79 79 80 80 80 80 80 80 79 78 77 77 77 77 77 75 74 70 67 70 73 69 66 64 61 58 56 56 57 58 60 61 62 62 61 59 56 55 54 53 55 56 59 60 57 53 54 59 63 63 62 64 67 67 67 68 70 72 72 71 69 67 65 63 61 60 59 60 62 63 66 66 59 55 52 51
66 67 68 69 71 73 75 77 79 80 82 83 84 84 84 84 83 83 83 83 82 81 79 79 77 76 75 74 74 69 67 74 76 69 66 65 63 61 59 57 57 57 58 59 61 62 61 60 59 58 56 56 56 55 57 57 53 52 54 59 62 63 64 65 66 65 66 67 68 69 69 69 68 66 64 63 64 66 66 66 63 63 66 66 60 55 52 50
71 72 73 74 74 75 77 79 81 83 85 86 87 88 88 88 88 88 87 86 85 84 84 83 81 79 76 75 73 68 71 79 76 70 68 67 65 64 62 60 58 58 58 58 59 60 61 62 63 61 59 58 55 54 54 52 51 54 56 58 58 60 63 65 65 65 66 67 66 65 65 67 66 63 62 63 66 70 71 66 61 64 70 67 60 55 51 50
75 76 77 78 78 78 79 80 83 85 87 89 90 91 92 92 92 92 91 90 89 88 87 86 85 84 81 79 74 71 81 84 77 73 70 68 67 66 64 62 61 60 59 58 58 58 60 62 64 63 59 57 55 55 53 50 51 54 55 56 56 56 58 61 63 64 66 66 64 63 63 64 61 58 58 61 66 70 70 66 64 68 72 67 60 55 52 51
78 79 80 81 81 81 81 82 84 86 88 91 93 95 95 96 96 96 95 94 93 92 91 90 89 87 86 82 78 81 89 87 80 76 72 71 69 68 67 65 63 63 61 60 59 59 60 61 62 62 59 59 58 56 54 52 52 53 54 54 54 55 54 55 58 63 66 65 64 63 61 59 56 54 57 61 65 68 69 68 68 70 71 64 58 55 53 51
80 81 82 82 82 83 83 84 85 87 89 92 94 96 98 99 99 99 98 98 97 96 95 93 92 90 88 84 84 90 93 89 84 78 74 74 73 71 71 68 66 66 65 64 62 62 61 61 60 59 60 60 59 57 55 54 53 52 52 51 53 53 50 51 55 60 64 64 65 63 57 54 54 55 58 61 65 67 68 69 69 69 66 60 55 55 55 54
81 81 81 81 82 82 83 84 85 87 89 92 94 97 99 100 101 101 101 101 100 99 98 97 96 94 90 86 90 95 93 90 88 82 79 79 77 76 74 71 70 69 68 68 66 64 62 61 58 57 58 58 59 59 56 55 53 52 51 48 48 49 48 51 53 56 58 60 64 62 55 52 54 56 57 61 66 68 68 68 67 63 57 53 54 55 55 55
79 78 78 79 79 80 81 82 83 85 87 90 93 96 99 101 101 102 103 103 103 102 101 101 99 97 92 90 95 97 94 93 92 88 84 82 80 80 78 75 74 72 71 70 69 66 64 62 58 55 54 54 57 58 56 56 54 52 49 44 44 45 47 51 52 52 53 56 60 59 53 52 54 56 58 63 66 68 68 66 62 56 49 49 53 53 52 54
74 74 75 76 77 78 79 80 81 82 83 85 88 92 97 99 100 101 103 104 104 103 104 103 102 99 96 96 98 99 97 96 95 91 86 83 83 83 82 78 76 75 73 72 71 69 66 62 58 55 53 53 54 53 55 56 53 51 47 43 43 43 45 49 50 50 51 54 56 53 52 54 56 57 61 66 67 67 66 63 59 52 46 47 49 49 48 50
72 72 73 75 76 77 78 78 78 79 79 80 82 86 90 93 96 98 100 102 103 104 105 105 104 101 99 100 101 101 100 98 95 91 87 87 86 87 84 80 78 77 77 76 73 69 67 63 59 57 55 53 52 52 53 52 50 50 47 44 44 43 43 45 48 49 51 52 52 50 50 53 56 60 65 68 67 66 63 60 57 51 46 45 45 45 45 48
71 72 73 74 75 76 76 76 75 74 74 76 78 80 82 84 88 91 94 96 98 101 104 105 105 102 102 103 104 104 103 100 96 92 89 89 89 89 87 82 81 80 79 77 73 70 67 64 62 60 57 55 52 51 48 45 46 49 48 47 46 43 41 42 46 49 50 50 50 50 48 51 56 62 66 68 68 65 59 56 55 51 47 44 43 43 45 47
70 70 71 73 74 74 74 72 71 69 69 71 73 74 76 76 78 82 85 88 92 97 100 102 103 103 104 105 106 106 105 102 99 95 92 91 92 92 89 85 83 81 80 76 73 71 68 66 64 60 57 54 51 48 43 42 45 47 47 48 47 45 43 43 46 48 50 51 50 48 46 50 57 62 66 68 68 64 56 54 53 51 47 44 43 44 45 46
67 68 69 70 71 70 69 68 66 64 64 66 67 68 70 71 72 74 76 80 85 90 94 97 99 100 103 106 107 107 106 104 101 97 94 93 93 93 91 88 84 81 79 75 73 72 70 67 62 58 56 54 51 48 45 45 45 45 46 48 48 47 46 45 47 48 50 51 49 47 46 49 56 62 66 67 67 62 55 52 52 49 46 44 45 45 45 44
64 64 65 66 66 64 64 62 60 59 59 59 60 61 63 64 66 67 68 72 76 81 86 91 94 96 101 105 107 107 107 105 102 100 96 95 95 94 92 88 84 80 77 75 75 74 71 65 60 59 59 57 55 52 49 48 47 45 45 46 47 47 46 47 47 48 50 49 48 48 47 48 53 61 65 65 65 60 54 53 51 48 45 44 46 47 44 43
59 59 60 60 60 59 58 56 55 54 53 53 54 55 55 56 58 59 61 65 71 75 79 84 88 91 97 103 104 105 106 105 103 101 98 96 96 95 93 89 85 80 79 78 77 74 68 63 62 62 62 60 58 55 52 50 49 46 45 45 46 47 47 48 48 48 50 48 47 48 48 47 52 59 62 61 62 59 54 53 51 47 44 44 46 47 45 44
55 55 55 55 54 53 52 50 50 50 48 48 48 49 49 49 50 51 53 58 66 73 75 77 80 83 92 101 102 101 103 104 103 101 98 96 96 96 94 90 86 84 82 79 75 72 67 64 65 65 64 62 59 56 53 51 49 46 43 42 43 46 47 48 48 49 51 49 46 48 47 47 50 54 55 55 56 56 54 52 50 47 43 44 46 46 47 46
53 52 51 51 50 48 47 44 44 44 43 42 43 43 44 44 43 44 46 52 63 72 71 71 73 77 88 98 98 96 99 102 102 100 98 97 97 97 94 91 88 86 82 78 75 72 68 68 70 69 67 64 61 57 54 51 48 45 42 38 40 45 48 49 50 52 53 49 46 47 46 46 48 47 48 50 50 52 53 51 50 47 43 42 45 47 49 48
52 51 49 47 46 44 42 40 39 39 38 37 37 38 39 40 39 40 43 48 60 68 64 64 71 76 84 90 90 91 96 100 100 99 98 98 98 97 95 92 89 86 82 79 77 73 70 72 74 72 69 66 63 59 54 51 49 46 42 39 41 45 49 52 54 56 55 48 45 46 43 43 46 44 44 47 47 50 52 51 50 47 43 42 45 48 51 49
51 50 47 44 44 42 38 36 35 35 34 33 33 33 34 36 35 37 42 48 57 62 58 60 69 75 79 81 82 86 92 96 98 98 97 98 98 97 96 92 88 85 84 82 79 75 73 74 74 72 70 68 64 60 56 53 51 48 44 44 45 47 50 53 55 56 53 47 45 45 43 43 45 43 42 45 47 49 49 49 49 46 43 45 46 48 51 50
50 50 47 42 40 40 37 33 31 31 31 29 28 28 30 31 33 36 41 46 53 55 54 57 64 71 74 73 74 79 86 93 96 96 96 97 98 97 95 92 88 86 86 84 80 75 73 75 75 72 69 67 62 58 56 55 52 48 48 50 49 48 50 53 55 54 51 50 47 44 43 43 42 40 40 43 45 46 46 46 47 46 45 48 47 47 51 51
50 49 48 42 38 37 35 32 29 28 28 26 25 24 26 28 32 35 38 44 49 50 51 54 59 65 68 68 70 75 82 90 92 93 95 97 98 98 95 92 90 88 87 84 78 75 75 76 74 71 68 64 59 58 57 56 52 51 54 54 51 50 51 54 55 53 53 52 47 42 42 41 38 36 39 41 40 41 43 43 46 47 48 50 48 47 51 51
50 48 46 42 37 34 32 30 27 26 25 24 22 21 23 26 29 33 36 42 44 44 46 50 54 59 62 63 68 74 81 85 88 91 94 97 98 97 95 93 92 90 88 83 79 79 78 76 75 72 67 62 60 60 60 56 54 56 58 56 53 52 52 54 53 53 54 50 43 40 40 39 35 32 35 38 36 37 42 44 46 49 49 49 48 47 50 51
51 47 44 41 37 33 29 26 24 24 23 22 21 19 20 23 26 29 33 36 37 37 41 44 47 53 58 60 65 72 78 81 85 89 92 94 97 97 95 95 94 92 88 84 82 80 79 78 77 73 67 64 64 64 62 58 58 60 60 57 56 54 53 52 51 53 52 44 40 40 39 38 36 30 32 36 34 35 42 45 46 48 48 48 48 48 49 51
52 48 43 40 37 32 28 23 20 20 19 19 18 17 18 20 22 25 28 30 30 31 34 37 41 47 53 57 62 69 74 77 81 84 87 91 94 94 93 94 94 92 88 84 82 81 80 79 75 71 68 68 68 66 63 61 61 62 61 59 58 56 54 51 49 49 44 37 40 41 39 38 35 31 32 35 35 35 40 44 46 47 47 47 49 49 49 51
54 49 43 39 36 31 27 22 17 15 15 15 15 15 15 17 19 21 22 23 24 26 29 33 38 44 50 55 60 65 69 71 75 79 83 86 88 89 89 89 89 88 85 82 80 80 79 76 73 71 72 71 69 66 63 62 62 62 61 60 58 56 53 49 46 43 37 37 42 42 38 35 31 30 32 34 35 34 37 43 46 48 47 47 49 49 49 50
55 50 43 39 36 31 26 20 15 13 13 12 12 12 13 14 16 16 16 17 19 23 28 33 39 44 49 55 59 61 64 67 70 75 80 83 85 87 87 88 88 86 83 81 81 81 79 77 75 74 72 70 68 65 61 59 59 60 60 58 56 54 50 46 43 40 37 39 43 42 38 34 31 31 33 35 35 34 38 43 47 49 49 48 48 48 50 50
55 51 44 40 37 33 28 22 17 14 13 11 10 8 8 10 12 12 12 14 18 23 29 34 39 43 47 51 54 57 60 63 67 72 76 80 83 85 85 87 87 85 84 84 83 82 79 76 74 71 69 68 66 63 60 59 60 61 60 58 56 52 48 45 43 40 38 40 43 43 40 35 33 32 34 38 38 36 39 42 45 49 49 47 45 47 50 51
56 51 46 41 38 34 30 25 21 17 15 13 10 8 6 6 9 10 12 16 20 25 30 34 37 40 43 46 49 53 57 61 65 69 72 75 79 80 81 84 86 85 84 84 83 82 79 75 72 70 69 67 65 64 63 62 63 63 62 58 54 51 49 48 45 41 40 42 45 45 40 37 35 33 34 38 37 35 37 40 44 47 47 46 45 47 52 52
56 51 48 43 39 35 30 26 22 19 17 14 11 9 6 6 7 10 13 17 20 24 28 32 34 37 39 43 47 51 55 59 63 65 68 72 76 79 80 82 85 85 84 83 82 81 78 76 75 73 71 68 66 65 64 63 63 64 60 54 51 52 53 49 45 42 42 44 46 44 41 38 36 33 34 37 37 34 34 38 42 44 46 46 46 49 53 52
57 52 48 45 41 36 31 27 24 20 19 17 12 8 6 4 6 9 13 18 21 24 27 29 32 34 37 40 44 48 52 56 59 62 65 68 73 77 79 81 83 85 85 85 83 81 79 78 77 75 72 70 68 68 66 64 64 62 56 53 56 58 55 50 46 43 41 44 45 42 40 38 36 35 34 36 37 34 34 37 41 42 44 45 47 50 52 52
58 53 50 46 43 39 34 30 26 22 20 18 13 8 4 3 5 9 14 18 22 25 27 29 30 32 34 37 40 43 47 51 55 59 62 65 69 73 76 79 81 84 87 88 85 83 82 81 79 76 74 73 72 70 68 66 64 61 57 58 60 57 52 49 47 42 40 42 43 41 38 37 36 36 35 36 37 36 35 37 40 43 44 44 46 50 52 52
57 53 50 48 45 42 37 32 27 23 20 17 13 8 3 1 4 9 14 17 21 24 27 29 30 31 32 34 37 40 44 48 52 56 59 62 66 69 74 77 79 82 86 88 87 86 85 83 81 78 77 77 76 72 67 64 63 62 61 62 60 54 51 50 46 41 41 42 42 42 39 37 37 37 36 37 38 37 36 36 39 43 44 44 47 51 52 53
57 52 49 47 45 42 38 32 27 23 20 17 13 8 2 2 4 8 13 16 18 21 25 28 30 30 30 32 35 38 43 47 50 53 57 60 63 67 71 75 78 81 84 86 88 88 86 84 82 81 80 79 75 69 65 63 62 61 60 60 58 54 52 49 45 43 42 42 43 43 40 39 40 39 37 37 37 37 36 36 39 43 45 47 49 51 53 54
56 51 48 46 45 42 38 32 27 23 19 17 13 8 3 3 5 7 11 14 16 19 23 27 30 31 31 33 36 39 43 47 49 52 54 57 60 64 68 72 77 80 81 84 87 88 87 85 83 82 80 76 71 67 66 64 62 61 60 58 57 55 52 47 44 43 43 42 43 43 41 41 42 39 36 37 38 38 38 36 38 42 46 48 50 51 53 55
56 51 48 45 44 42 38 33 29 24 20 18 14 8 4 3 6 8 10 12 14 18 22 27 30 32 34 35 36 38 42 45 48 51 53 56 59 62 66 70 75 78 79 81 84 86 87 86 84 82 78 75 72 70 68 66 64 64 62 60 58 56 52 48 45 43 44 45 44 44 43 42 41 38 37 38 40 40 40 38 38 42 45 47 49 50 52 53
56 51 47 44 42 40 37 33 28 24 21 19 15 9 4 3 5 9 11 12 14 17 21 26 30 32 32 33 34 37 40 43 47 50 53 56 59 62 66 70 73 76 78 79 81 83 85 85 84 82 80 78 76 73 70 68 67 66 64 62 59 56 53 51 50 48 47 46 44 44 43 41 40 39 39 40 42 42 41 40 40 41 43 45 47 48 51 53
56 51 47 44 42 40 37 32 28 24 20 19 15 10 5 3 5 8 11 12 14 17 21 25 28 30 30 30 33 36 38 41 45 50 53 57 60 63 65 68 71 74 77 78 78 79 80 80 81 82 81 80 78 75 72 69 67 65 63 62 59 57 55 54 52 49 47 45 43 43 42 40 40 41 41 43 43 41 41 41 41 40 41 44 45 46 50 54
55 50 46 43 40 40 38 34 28 23 19 17 15 11 7 4 4 7 9 11 13 16 20 24 27 28 29 30 32 35 37 40 44 49 52 55 59 63 65 66 69 72 75 77 78 76 75 75 76 76 76 75 73 70 67 65 63 63 62 60 58 56 55 53 50 47 46 45 43 43 43 41 41 42 42 42 41 41 42 42 41 40 41 44 46 46 48 53
55 49 45 42 39 39 38 34 27 23 19 17 14 11 8 5 3 5 7 9 11 15 19 24 27 29 30 31 32 34 37 39 42 46 50 54 57 60 62 63 66 70 74 76 76 74 72 71 72 72 72 71 69 66 63 62 61 61 60 58 56 54 52 50 48 46 45 46 45 45 43 42 42 42 41 40 40 40 40 41 42 41 41 44 46 46 48 52
54 49 45 41 38 37 36 33 28 22 19 16 13 11 8 5 4 4 5 7 10 13 18 23 27 30 31 31 32 34 37 40 42 45 49 53 55 57 58 60 63 68 71 73 72 72 71 71 70 70 70 70 68 66 65 63 61 61 60 58 56 53 50 48 46 45 46 47 46 45 44 42 42 41 40 40 40 40 39 41 43 43 42 44 47 47 47 50
52 48 43 39 36 35 34 32 28 22 18 15 12 10 8 6 5 4 5 7 9 13 17 22 26 29 30 30 31 34 37 40 43 45 48 51 53 53 55 58 61 65 68 70 71 72 71 70 68 67 67 67 67 67 66 64 63 62 60 58 56 53 51 48 47 48 48 47 45 44 43 42 41 40 40 40 40 40 40 41 42 43 43 45 47 47 47 47
50 46 41 37 34 33 32 31 27 21 17 14 11 9 8 7 6 6 5 7 10 13 17 21 24 27 28 29 31 33 35 39 42 45 47 49 50 51 53 57 60 62 65 68 71 72 70 68 66 66 66 66 67 67 66 65 64 63 62 60 58 55 54 53 52 51 49 46 45 43 42 41 39 38 39 40 41 41 41 41 42 43 43 44 46 48 47 45
50 45 41 36 33 31 30 30 27 22 17 13 10 7 7 7 6 6 6 7 10 14 18 21 23 26 28 30 32 34 35 37 41 44 46 47 48 50 52 55 57 60 63 66 67 68 67 66 65 65 65 65 66 66 65 64 63 63 62 61 58 56 56 55 55 53 50 48 46 44 42 40 37 37 38 39 41 42 42 42 42 43 43 44 46 47 48 46
50 45 40 35 32 29 28 28 26 22 17 13 10 7 6 6 6 6 5 6 9 13 18 22 24 25 27 29 32 34 36 37 39 42 45 47 48 49 49 50 52 56 59 61 61 63 64 64 64 64 64 65 65 64 63 63 62 62 61 59 57 56 55 54 53 51 49 47 45 44 43 40 37 37 38 40 41 42 41 41 41 42 43 44 44 46 48 48
48 43 38 35 31 28 26 25 25 22 17 12 9 7 5 5 6 7 6 7 9 12 17 22 25 26 26 28 31 34 37 38 40 41 43 44 46 46 45 45 47 50 52 54 57 60 61 62 62 62 63 63 63 62 62 61 60 59 58 56 54 53 51 51 50 49 47 44 43 44 44 40 37 38 39 41 41 41 41 41 40 41 43 43 43 45 47 48
Wind_Direction
265 264 263 262 261 260 260 260 259 258 258 257 257 256 256 255 255 255 255 255 255 255 254 253 252 251 251 250 248 248 249 251 252 252 252 253 253 252 252 250 248 248 247 246 246 244 242 241 241 241 241 242 242 243 243 242 242 241 241 240 237 236 236 237 237 236 235 235 237 240 241 239 240 243 242 241 242 243 244 241 236 232 232 231 228 232 237 237
270 268 266 264 263 262 261 260 260 259 259 258 258 257 256 256 255 255 255 255 255 255 254 254 253 251 251 250 249 248 250 252 253 253 252 253 253 252 251 250 248 247 247 247 247 245 244 243 242 242 242 242 242 243 244 244 244 243 242 240 238 237 236 235 236 236 236 235 236 239 241 240 240 243 243 242 243 243 244 242 240 236 235 234 232 234 237 239
274 272 270 268 266 264 263 261 260 259 259 258 257 257 256 255 255 255 255 255 255 255 254 254 253 252 250 250 249 249 249 251 252 253 253 253 253 251 250 250 249 247 246 246 246 246 245 244 243 243 242 242 242 243 243 244 244 244 242 240 238 237 236 235 235 235 236 235 235 238 240 240 241 243 243 242 243 243 244 244 243 241 240 237 235 235 236 238
276 274 272 270 268 267 265 264 262 261 259 258 257 256 256 255 255 254 254 254 254 254 254 254 253 252 251 250 249 249 249 250 251 252 252 252 252 251 249 248 248 247 245 245 245 245 245 244 244 243 242 242 242 243 243 243 243 243 242 239 237 236 235 235 235 235 235 235 236 237 239 240 241 243 243 243 243 244 244 245 245 245 244 242 239 237 236 238
278 275 273 271 269 268 266 264 263 262 260 259 258 257 256 255 254 254 253 253 253 253 253 253 253 252 252 251 250 249 250 250 251 251 251 250 249 249 248 246 246 246 245 244 245 244 244 244 244 244 243 242 242 243 243 243 242 241 240 238 236 236 235 235 236 235 235 235 236 238 239 240 241 243 244 243 244 245 245 246 247 248 248 245 241 239 238 240
281 278 276 274 271 269 267 265 263 262 260 259 258 257 256 255 254 253 253 252 252 252 252 252 252 251 251 251 250 249 250 250 250 250 249 247 246 246 246 246 245 246 245 244 244 244 244 243 243 244 243 242 242 242 243 243 242 240 239 238 237 236 235 235 236 235 235 235 236 237 239 240 241 244 246 246 246 247 246 247 246 246 247 246 243 240 239 241
282 280 277 275 273 271 269 267 265 263 261 260 258 257 256 255 254 253 252 251 250 250 250 250 250 250 250 250 249 249 249 250 248 247 247 246 245 244 244 245 245 244 245 244 244 244 243 243 243 243 242 242 242 242 242 243 242 240 239 238 238 237 235 236 236 235 235 236 236 237 239 240 241 244 246 247 248 248 247 246 244 243 246 247 245 243 241 241
284 282 280 277 274 272 269 267 265 264 262 261 259 257 256 255 253 252 251 250 249 248 248 248 248 249 249 249 248 247 247 247 245 244 245 246 245 243 242 243 244 243 244 244 244 244 243 243 242 242 242 242 242 241 241 242 242 241 240 238 237 237 236 237 238 237 236 236 236 237 239 241 241 243 245 247 247 246 245 243 242 242 246 248 247 245 243 242
286 284 282 279 276 273 270 268 265 263 262 260 259 258 257 255 253 252 251 249 249 247 247 246 246 246 247 247 247 245 243 244 244 243 243 244 243 241 240 240 241 242 242 243 243 243 244 243 242 241 240 240 241 241 242 243 242 241 239 239 237 236 236 236 238 239 238 237 237 238 239 241 241 242 244 246 247 246 243 241 241 244 247 248 247 246 246 245
286 284 282 280 277 274 271 268 265 263 261 260 258 257 256 255 254 252 251 249 248 247 246 245 245 245 244 245 245 244 242 242 242 241 240 241 241 241 240 239 239 240 240 241 242 242 242 242 241 239 239 239 240 241 243 243 242 240 239 239 238 237 236 237 238 239 240 239 238 239 240 241 241 241 243 245 246 246 245 243 242 245 246 247 247 246 246 247
287 285 283 281 278 275 271 267 264 262 260 259 257 256 254 253 253 252 251 250 248 247 246 245 244 244 243 243 242 242 243 243 241 239 239 240 241 241 241 239 238 238 238 239 240 241 241 240 240 239 238 240 241 241 242 242 241 240 239 239 239 239 238 238 238 240 241 241 240 239 239 241 241 241 242 243 244 245 246 244 242 243 245 245 246 247 247 248
289 286 284 282 279 276 272 268 264 260 258 256 255 255 254 252 251 250 250 249 248 247 246 245 244 243 242 242 240 241 243 243 241 239 239 240 240 241 241 240 238 238 237 237 238 238 239 239 239 239 238 238 239 239 240 240 240 240 240 239 239 239 239 239 239 239 241 241 241 240 239 241 242 240 240 241 242 243 245 243 241 242 244 245 246 248 248 248
290 287 285 282 279 275 272 268 264 260 257 255 253 252 251 251 250 249 248 248 247 247 246 245 244 243 242 241 240 240 241 242 242 239 238 239 240 240 240 239 238 237 236 235 236 237 238 239 240 239 238 237 238 239 239 239 240 240 241 240 240 240 240 240 240 240 240 240 241 240 239 240 240 239 239 241 242 242 242 242 240 241 244 246 247 247 248 247
292 289 285 282 279 275 272 268 264 261 257 254 252 251 249 248 248 247 247 246 246 245 245 244 244 243 241 240 240 240 240 241 241 239 237 237 238 239 239 238 238 237 236 235 235 236 237 239 240 240 240 239 238 238 237 238 239 240 241 241 242 242 241 241 241 242 242 241 241 239 237 237 238 238 239 240 241 241 241 241 241 241 243 246 246 245 245 246
294 290 287 284 280 277 273 270 266 263 259 255 253 251 250 248 246 245 245 245 244 244 243 243 243 242 241 239 240 241 240 240 240 238 236 236 237 238 238 238 238 237 237 236 236 235 236 238 239 240 241 241 240 239 239 239 239 240 241 241 243 242 240 240 241 242 243 242 241 238 234 234 237 237 238 239 240 241 241 241 242 241 240 241 243 243 243 244
297 293 289 285 281 278 274 271 268 265 262 258 255 252 250 249 247 245 244 243 242 242 242 242 241 241 239 238 239 240 240 239 239 238 237 237 237 238 238 238 238 238 238 238 237 236 236 237 237 238 238 240 241 240 240 239 239 241 241 240 241 240 238 239 239 240 241 241 241 237 231 231 235 236 238 239 238 239 241 242 242 241 237 237 240 242 241 242
299 294 290 286 282 279 276 273 270 267 265 262 258 254 251 249 248 247 245 243 241 240 240 240 240 239 238 238 238 239 239 239 239 238 237 237 237 237 237 237 238 238 238 238 238 237 237 236 236 236 236 237 239 239 239 240 241 242 241 240 239 239 238 237 238 238 239 240 240 236 229 227 231 234 237 239 239 238 239 241 242 240 236 235 237 239 239 238
300 295 291 287 284 281 278 276 273 270 267 264 261 258 254 251 248 247 246 244 242 240 239 239 238 237 237 237 238 238 238 238 239 238 237 237 237 237 237 236 237 237 237 238 238 238 238 236 235 235 237 238 240 241 241 241 240 239 238 237 237 236 234 233 235 236 237 237 237 235 230 225 228 233 236 238 239 239 238 239 241 240 236 234 234 235 237 235
301 297 292 288 285 283 281 279 277 274 270 267 263 260 257 254 250 247 246 244 242 240 239 238 237 236 235 236 237 237 237 237 237 236 236 236 236 237 236 235 236 237 238 238 238 239 238 237 236 237 239 240 241 241 240 238 238 236 235 234 234 233 231 230 231 234 235 235 235 234 231 227 227 231 235 237 238 238 237 237 239 238 236 233 232 233 234 234
303 298 293 290 288 286 284 282 279 276 272 268 265 261 259 256 252 249 246 243 241 240 239 238 236 235 234 235 235 236 236 236 236 235 235 235 236 236 236 234 234 236 237 238 238 238 238 237 237 237 237 237 237 236 234 234 235 234 233 232 232 232 231 230 231 233 235 235 234 233 231 230 230 231 234 236 237 237 236 237 237 237 235 232 231 231 232 234
304 299 295 292 291 289 286 284 282 279 275 270 267 263 259 256 253 249 246 244 242 240 238 237 235 233 233 233 233 234 234 234 234 234 233 234 235 236 236 235 234 234 235 236 236 237 237 237 237 235 234 233 233 232 231 232 233 232 231 230 231 232 231 231 232 233 235 235 233 232 229 230 232 232 234 235 237 236 235 236 236 235 233 231 230 231 230 232
307 302 298 295 294 291 289 288 285 281 277 273 268 265 261 257 253 249 246 243 242 240 237 235 233 231 232 233 232 231 232 233 233 233 232 232 233 235 235 234 233 233 233 233 234 235 236 235 235 234 232 232 232 231 231 232 233 232 231 230 230 231 230 231 232 233 235 233 232 232 229 229 233 234 235 236 237 236 234 235 236 234 231 230 229 229 228 228
311 306 303 300 297 295 293 291 287 283 279 275 270 266 263 258 254 249 244 242 241 238 235 233 232 229 230 232 231 229 230 231 231 231 231 231 231 233 233 233 231 231 231 231 232 233 233 232 232 232 232 231 231 231 231 232 233 233 233 233 232 231 230 231 231 233 234 231 230 231 229 228 233 237 238 238 237 237 234 233 235 234 229 228 229 227 226 225
317 312 309 306 302 299 297 294 288 284 280 276 271 267 263 258 252 247 242 238 239 237 232 229 230 227 227 229 229 228 227 228 229 229 229 229 229 231 232 231 231 230 229 229 230 230 229 229 229 229 229 230 230 229 230 231 233 234 234 234 234 233 230 229 229 231 233 230 228 229 229 230 233 236 240 239 237 237 234 231 232 232 227 226 227 227 225 222
323 318 315 312 308 305 302 298 292 286 282 277 271 266 262 257 250 244 238 234 236 236 230 225 226 226 226 227 227 226 226 227 227 227 227 227 228 228 229 229 229 229 229 228 227 227 226 227 228 228 227 228 228 228 228 229 231 232 231 231 232 232 230 229 228 230 232 231 228 228 228 231 234 234 236 239 237 235 233 229 229 229 227 225 225 226 225 221
329 323 321 318 314 310 308 303 296 290 285 279 272 267 261 256 250 242 236 232 233 235 229 222 223 224 224 225 225 223 224 225 225 224 224 225 226 227 227 227 227 227 228 227 226 224 224 226 228 228 228 228 228 227 227 227 228 229 229 229 230 230 229 230 230 230 232 231 229 227 225 229 234 233 233 236 236 234 231 227 227 226 225 226 225 225 225 221
334 328 325 324 320 316 313 308 301 294 289 283 275 267 260 253 248 241 235 232 232 231 228 222 221 223 223 221 222 222 222 223 224 223 222 222 224 225 225 225 225 225 225 226 225 224 224 225 227 227 228 228 228 229 228 228 228 228 229 229 230 230 229 230 230 230 231 230 228 226 225 227 233 236 235 235 235 236 232 226 225 222 222 226 225 223 224 221
338 333 329 328 326 321 317 312 306 298 292 286 278 267 258 250 245 240 235 233 232 229 226 223 219 221 222 218 217 219 220 221 222 221 220 220 221 222 222 222 223 223 224 224 223 223 224 225 226 226 227 227 227 228 228 227 226 227 229 229 230 231 230 230 230 229 229 228 226 225 225 226 231 236 240 237 233 235 234 227 223 221 220 225 225 223 223 221
343 338 333 332 331 327 320 315 309 301 293 287 280 268 256 248 243 240 235 234 233 228 225 223 219 219 220 217 214 216 217 218 219 219 219 218 219 220 219 219 220 221 221 221 220 221 222 223 224 224 224 224 224 225 226 225 224 226 228 228 229 231 231 232 231 230 229 228 226 225 225 224 225 231 241 242 233 230 232 227 222 221 221 224 225 224 223 219
346 342 338 336 335 331 325 318 311 304 295 288 281 270 258 249 243 240 238 236 235 229 226 224 220 218 219 216 214 215 216 216 216 217 217 217 217 218 217 217 218 218 218 218 218 219 220 222 223 222 222 221 221 222 223 222 222 225 227 227 229 230 232 234 233 233 232 229 228 227 225 222 220 223 236 243 236 228 228 226 221 221 222 223 224 224 222 219
349 346 343 341 338 335 329 323 316 307 297 290 283 273 260 251 244 240 238 237 235 230 226 223 219 217 217 216 214 214 216 216 215 215 216 216 217 217 216 216 217 217 217 216 217 218 220 221 222 222 222 221 222 222 221 220 221 224 226 226 228 230 233 235 236 237 236 232 231 229 225 221 218 221 231 238 236 228 226 225 221 221 222 222 223 223 221 218
352 349 348 346 342 338 334 330 327 317 301 293 287 277 263 253 246 241 236 233 228 224 221 218 215 215 215 215 214 214 215 215 215 214 214 215 216 217 217 216 217 217 217 216 216 218 220 221 222 222 222 223 223 223 223 223 223 225 226 227 229 231 234 237 239 241 238 233 232 230 225 220 216 222 230 233 234 228 223 223 222 221 222 221 221 223 222 219
353 352 352 351 347 343 340 337 338 334 316 300 290 279 269 259 251 243 234 226 217 213 212 211 211 211 211 212 213 212 213 213 214 213 213 213 213 215 215 215 216 216 215 215 216 218 219 219 220 221 223 223 224 224 224 225 227 228 229 229 231 234 237 239 241 241 236 232 233 231 225 218 214 220 227 229 230 227 222 220 220 221 222 221 220 222 224 221
355 354 355 357 353 349 348 346 347 350 340 319 296 272 262 261 254 240 223 211 203 203 205 206 208 209 209 210 211 210 210 211 212 212 212 211 212 212 212 213 214 214 213 213 215 217 217 219 221 222 224 225 225 225 224 224 225 227 228 229 230 233 236 238 239 238 234 232 232 229 222 215 212 217 224 226 225 225 223 219 219 221 222 221 220 223 227 224
356 356 357 360 359 355 353 353 354 357 354 340 317 283 245 232 235 223 204 196 195 198 202 203 205 206 207 209 209 208 208 208 210 211 211 210 211 211 211 212 212 213 213 213 214 215 215 216 218 220 222 223 224 224 224 223 224 225 225 226 228 231 234 236 236 234 230 229 230 227 220 214 212 215 225 228 224 224 226 221 219 220 221 220 219 223 227 226
357 358 358 1 2 360 357 357 358 360 360 354 337 307 266 221 212 206 193 189 191 195 200 201 202 203 204 205 206 206 206 206 208 209 209 209 209 209 209 210 211 212 213 214 214 215 215 215 215 216 218 220 221 223 223 224 226 227 227 227 229 230 231 232 234 233 230 228 229 227 219 212 210 213 224 229 223 221 225 224 219 218 220 220 219 222 227 226
357 358 0 2 3 2 0 0 2 3 3 358 349 326 290 238 203 195 189 187 187 190 194 197 199 199 200 203 204 205 205 205 205 206 207 207 207 207 207 208 209 210 211 212 213 214 214 215 215 216 216 217 218 220 221 221 224 226 226 227 228 229 229 231 233 232 231 230 230 228 220 213 211 213 221 226 223 218 220 223 219 216 217 219 219 222 225 226
358 358 1 3 4 4 3 3 3 5 4 357 350 340 307 244 197 189 187 189 189 187 189 191 193 195 197 200 202 202 203 204 203 204 205 205 205 206 206 206 207 208 209 211 211 212 213 213 214 215 216 216 217 218 219 220 222 223 222 223 226 228 231 234 235 235 234 232 231 229 224 217 215 215 218 223 223 218 218 221 220 217 216 217 219 222 224 225
358 359 1 4 5 4 4 5 4 5 5 360 353 349 333 215 193 190 187 191 193 190 187 186 186 190 193 195 198 199 200 201 201 201 202 202 203 203 204 205 206 207 209 210 210 211 213 213 213 214 215 216 217 218 218 219 221 222 222 224 226 228 230 232 234 235 235 232 229 227 224 220 218 216 216 221 223 219 217 219 220 219 218 218 219 221 222 224
358 359 2 4 5 5 4 5 6 7 8 5 360 356 2 142 174 192 190 191 194 192 187 183 181 183 187 190 192 193 195 197 198 198 199 200 200 200 201 203 204 206 207 209 210 211 212 213 213 214 215 217 218 218 219 219 221 223 225 227 230 231 232 232 232 232 232 231 229 226 223 220 219 216 214 219 222 220 218 218 220 219 219 221 222 221 221 223
357 358 2 6 7 6 4 5 8 10 13 14 10 7 23 123 152 185 192 191 190 189 185 181 177 177 181 186 189 190 192 193 194 195 196 197 198 199 199 201 203 204 206 207 209 211 212 213 213 215 216 218 218 218 219 219 220 222 224 226 228 230 231 232 233 233 232 231 228 225 222 220 218 214 211 215 218 220 220 220 220 219 219 221 223 223 223 223
357 358 2 6 8 7 4 5 8 12 18 21 19 19 36 109 148 170 183 187 187 185 183 180 176 176 179 183 185 188 190 190 190 190 191 193 195 196 197 199 201 203 204 206 208 209 211 212 213 214 216 217 217 217 218 218 219 220 221 222 223 224 226 227 229 230 230 229 226 223 222 220 218 212 209 213 216 217 219 220 219 218 218 221 223 225 225 225
357 358 0 4 9 10 7 6 8 12 20 24 23 24 45 101 147 161 170 181 183 182 181 179 177 176 178 180 181 184 187 188 187 187 188 189 192 194 196 197 199 201 202 204 206 208 209 210 212 213 214 215 215 216 217 218 219 220 221 221 222 222 224 225 225 226 227 227 225 222 221 221 218 213 209 212 216 216 218 220 220 218 218 220 223 226 227 227
357 357 359 2 8 10 10 9 10 14 22 27 26 26 39 89 143 159 167 176 179 179 178 177 176 175 174 175 179 182 184 186 186 185 186 187 190 192 195 196 196 198 201 203 205 207 208 209 211 212 214 215 215 216 216 218 220 222 223 223 224 224 225 226 227 227 226 226 224 222 221 219 217 215 212 213 216 216 217 219 220 219 218 219 223 226 228 228
356 357 357 0 7 11 10 9 10 15 24 32 34 35 37 61 132 158 172 177 179 178 176 175 174 171 169 172 176 179 181 183 185 185 184 187 189 191 193 195 195 196 199 201 203 205 206 207 208 211 214 216 217 219 220 221 223 225 226 226 227 228 229 229 230 229 227 226 223 221 220 218 217 216 214 214 216 217 218 219 220 219 218 218 221 225 228 229
356 356 356 358 6 11 10 9 10 15 24 33 38 43 47 60 113 157 174 178 177 176 174 172 170 167 167 171 174 175 177 179 183 184 184 186 190 192 193 194 194 195 197 200 201 202 203 204 205 207 210 213 215 218 220 222 224 226 228 229 229 230 231 232 233 232 229 226 223 220 219 218 217 216 215 214 216 218 219 219 220 220 219 218 221 224 228 230
355 355 355 356 3 10 11 9 10 15 24 32 37 44 53 69 100 143 167 169 170 172 172 171 168 166 168 170 170 173 175 177 179 182 183 186 189 192 192 192 194 196 197 198 199 200 200 202 203 204 206 208 210 211 214 216 219 222 225 226 228 230 231 232 233 232 229 227 224 221 220 219 218 216 214 214 216 217 219 220 220 221 220 219 220 223 227 230
354 353 354 354 359 8 12 11 10 14 22 30 38 49 59 72 96 122 150 159 163 169 170 170 169 168 167 167 167 171 175 176 177 179 183 186 188 191 192 192 194 197 197 196 197 199 199 199 201 202 204 206 208 209 210 211 212 215 218 220 222 224 225 226 228 229 228 227 224 222 222 221 220 217 215 215 217 218 219 220 221 222 222 221 221 222 226 230
355 353 352 353 356 6 12 13 11 13 21 29 34 51 67 79 98 117 139 155 161 165 166 168 169 167 164 164 165 169 173 176 177 178 182 185 186 188 193 194 194 195 197 197 197 198 198 197 198 200 202 204 207 208 209 209 211 213 215 216 217 218 219 219 220 222 223 223 222 221 222 223 221 219 216 215 218 220 219 219 221 223 224 223 223 223 224 228
354 353 352 351 354 3 11 13 12 12 20 29 31 42 68 82 94 112 135 153 161 164 164 164 166 165 164 164 165 167 170 175 177 178 181 184 185 187 193 197 196 195 196 197 197 196 197 197 197 198 200 203 207 208 209 210 211 213 215 217 217 217 217 218 219 219 219 218 217 217 219 222 223 222 220 218 219 222 222 219 220 223 225 224 223 223 224 226
353 352 351 350 352 1 8 12 14 14 16 27 31 31 50 76 88 100 120 145 159 164 163 161 162 164 165 165 165 166 168 172 177 179 181 183 185 188 193 197 198 198 197 196 195 195 196 196 197 198 201 203 206 208 209 210 212 214 216 218 218 219 219 220 221 221 220 217 215 214 216 218 219 221 221 220 221 223 224 223 222 224 226 225 224 224 224 225
352 351 350 349 351 358 6 10 14 16 16 20 30 29 30 58 84 96 109 132 150 159 162 161 160 162 165 165 165 166 168 170 174 178 180 183 185 187 190 194 199 200 198 194 193 195 196 197 197 198 201 204 207 208 210 211 213 215 218 219 221 221 222 223 223 223 222 218 215 215 215 215 216 218 220 221 222 224 226 226 224 225 227 226 224 224 225 225
Height
10663 10662 10661 10660 10659 10659 10658 10657 10657 10656 10656 10656 10656 10656 10656 10657 10657 10658 10659 10660 10661 10661 10662 10662 10663 10665 10666 10669 10672 10674 10675 10676 10677 10680 10679 10676 10681 10687 10685 10686 10688 10689 10692 10693 10694 10697 10699 10700 10700 10701 10705 10709 10714 10714 10716 10721 10724 10729 10738 10750 10763 10768 10771 10770 10769 10770 10770 10772 10771 10769 10768 10773 10773 10768 10772 10779 10784 10789 10795 10806 10815 10820 10821 10824 10829 10828 10826 10830
10656 10655 10654 10652 10651 10650 10650 10649 10648 10647 10647 10647 10647 10647 10647 10648 10649 10649 10651 10651 10653 10654 10654 10654 10655 10657 10659 10661 10665 10667 10668 10668 10670 10671 10670 10672 10678 10679 10678 10679 10682 10685 10687 10687 10688 10691 10694 10694 10693 10697 10701 10706 10709 10708 10711 10717 10719 10727 10736 10746 10758 10762 10761 10760 10760 10761 10762 10766 10766 10763 10762 10767 10768 10764 10770 10778 10781 10786 10792 10801 10809 10813 10817 10820 10823 10822 10824 10828
10650 10648 10646 10645 10643 10642 10641 10640 10639 10639 10638 10637 10637 10637 10638 10638 10639 10640 10641 10642 10644 10645 10646 10646 10646 10648 10651 10653 10657 10660 10660 10661 10662 10662 10663 10668 10671 10671 10673 10674 10675 10680 10681 10681 10683 10685 10688 10688 10688 10693 10697 10701 10703 10702 10706 10711 10715 10723 10730 10742 10753 10751 10749 10751 10752 10753 10755 10758 10759 10757 10756 10761 10764 10761 10766 10773 10778 10783 10790 10798 10803 10807 10812 10814 10813 10816 10822 10825
10642 10640 10638 10637 10635 10633 10632 10631 10630 10629 10628 10627 10627 10627 10627 10628 10629 10630 10631 10632 10634 10635 10636 10637 10637 10639 10642 10645 10649 10652 10652 10652 10653 10655 10658 10662 10663 10664 10667 10668 10669 10673 10674 10675 10677 10679 10681 10681 10684 10688 10692 10696 10696 10696 10702 10706 10709 10716 10725 10738 10742 10737 10741 10744 10743 10745 10747 10750 10752 10752 10752 10755 10758 10756 10761 10770 10775 10781 10788 10794 10798 10802 10805 10803 10804 10812 10819 10820
10634 10632 10629 10628 10625 10624 10622 10621 10620 10619 10618 10617 10616 10616 10617 10617 10618 10619 10620 10622 10623 10625 10626 10627 10628 10629 10633 10636 10640 10644 10644 10644 10646 10648 10650 10654 10656 10657 10659 10662 10663 10665 10668 10670 10671 10672 10674 10676 10679 10683 10687 10690 10689 10692 10697 10699 10701 10710 10721 10729 10729 10729 10736 10735 10734 10738 10740 10744 10746 10747 10748 10749 10751 10752 10758 10768 10772 10777 10785 10790 10794 10798 10794 10791 10797 10807 10814 10815
10625 10622 10620 10618 10615 10613 10611 10610 10609 10607 10607 10606 10605 10606 10605 10606 10607 10608 10610 10610 10612 10614 10615 10617 10617 10619 10623 10626 10632 10636 10636 10637 10638 10639 10641 10645 10649 10651 10653 10655 10657 10658 10661 10664 10665 10665 10668 10671 10675 10679 10682 10683 10684 10688 10690 10689 10695 10707 10716 10720 10720 10723 10727 10726 10727 10731 10733 10737 10741 10742 10741 10742 10748 10752 10757 10765 10770 10774 10780 10785 10790 10790 10780 10779 10791 10802 10808 10810
10614 10611 10609 10606 10604 10602 10600 10598 10597 10595 10595 10594 10594 10593 10593 10594 10595 10596 10598 10599 10601 10602 10604 10606 10606 10610 10613 10617 10623 10627 10630 10629 10627 10628 10632 10637 10641 10645 10647 10648 10650 10652 10654 10656 10658 10659 10661 10665 10670 10673 10675 10677 10680 10682 10683 10683 10691 10703 10711 10712 10713 10716 10719 10719 10719 10723 10727 10731 10734 10735 10734 10739 10748 10752 10754 10761 10765 10769 10775 10779 10782 10779 10770 10773 10785 10795 10802 10804
10603 10600 10597 10594 10591 10589 10587 10585 10584 10583 10582 10580 10580 10580 10580 10581 10582 10584 10585 10587 10589 10590 10594 10594 10596 10600 10602 10608 10613 10620 10626 10616 10611 10621 10627 10630 10634 10637 10640 10640 10642 10644 10646 10648 10650 10652 10655 10660 10665 10667 10670 10673 10673 10676 10677 10678 10689 10700 10704 10703 10705 10709 10713 10713 10713 10717 10722 10726 10727 10729 10732 10738 10745 10749 10752 10756 10758 10761 10766 10768 10771 10772 10767 10769 10779 10788 10795 10798
10591 10588 10584 10581 10578 10575 10572 10570 10569 10568 10567 10566 10566 10566 10566 10566 10568 10569 10571 10574 10576 10579 10582 10583 10587 10589 10594 10600 10602 10615 10617 10597 10600 10618 10621 10621 10624 10627 10630 10632 10634 10637 10638 10641 10643 10646 10650 10654 10657 10659 10663 10665 10666 10670 10672 10677 10687 10693 10694 10693 10697 10703 10706 10707 10708 10713 10716 10719 10721 10725 10731 10735 10740 10746 10749 10751 10750 10750 10753 10758 10765 10768 10762 10764 10774 10783 10789 10794
10578 10574 10570 10566 10563 10560 10557 10554 10552 10551 10550 10549 10549 10550 10550 10551 10552 10554 10556 10560 10563 10567 10570 10573 10577 10579 10586 10589 10594 10609 10598 10580 10595 10610 10611 10612 10614 10618 10622 10625 10628 10630 10632 10634 10636 10640 10643 10644 10646 10650 10656 10659 10663 10667 10669 10676 10682 10683 10685 10687 10692 10697 10699 10702 10705 10708 10709 10712 10717 10723 10728 10730 10735 10743 10746 10745 10740 10738 10742 10753 10763 10760 10754 10759 10770 10779 10785 10788
10564 10559 10554 10550 10546 10543 10539 10537 10535 10533 10532 10531 10531 10531 10532 10534 10535 10537 10541 10545 10549 10553 10556 10561 10564 10569 10576 10578 10590 10597 10574 10569 10590 10598 10602 10606 10607 10611 10614 10618 10622 10623 10626 10628 10630 10633 10633 10635 10638 10644 10652 10656 10659 10662 10665 10672 10674 10675 10679 10683 10688 10692 10695 10699 10702 10704 10703 10707 10714 10719 10723 10725 10733 10741 10740 10735 10731 10730 10735 10746 10754 10749 10745 10756 10768 10775 10780 10784
10548 10542 10537 10532 10527 10524 10520 10518 10515 10514 10513 10512 10512 10512 10513 10515 10517 10521 10524 10529 10533 10537 10542 10546 10551 10557 10562 10570 10583 10575 10554 10563 10581 10588 10596 10597 10599 10603 10604 10610 10614 10615 10619 10620 10623 10624 10624 10627 10631 10640 10647 10650 10652 10656 10661 10665 10667 10670 10674 10679 10683 10686 10692 10696 10697 10697 10697 10703 10708 10712 10719 10724 10731 10735 10729 10724 10723 10724 10727 10734 10742 10740 10741 10756 10768 10772 10776 10779
10530 10524 10518 10512 10507 10503 10500 10497 10495 10493 10492 10492 10492 10491 10493 10494 10498 10503 10507 10512 10516 10521 10526 10531 10537 10542 10550 10563 10566 10549 10545 10559 10568 10580 10590 10588 10589 10592 10593 10601 10604 10607 10610 10612 10614 10616 10618 10621 10628 10636 10640 10643 10647 10652 10656 10658 10662 10665 10669 10675 10678 10683 10690 10691 10690 10690 10692 10698 10701 10705 10717 10723 10725 10724 10719 10717 10716 10717 10719 10722 10731 10736 10744 10757 10765 10766 10769 10771
10510 10503 10497 10491 10486 10482 10478 10475 10473 10472 10471 10471 10471 10471 10472 10473 10478 10483 10488 10493 10498 10504 10510 10514 10521 10527 10539 10552 10542 10532 10542 10551 10557 10570 10576 10574 10577 10579 10584 10591 10594 10598 10601 10603 10606 10609 10613 10617 10625 10631 10634 10640 10643 10645 10650 10652 10657 10660 10664 10671 10675 10681 10686 10684 10684 10685 10688 10693 10693 10700 10715 10718 10715 10714 10712 10709 10706 10708 10711 10714 10723 10737 10749 10756 10757 10758 10761 10763
10489 10482 10475 10469 10464 10460 10456 10453 10451 10450 10450 10450 10451 10450 10451 10453 10458 10463 10468 10473 10479 10487 10493 10497 10505 10512 10527 10534 10521 10521 10534 10538 10541 10552 10559 10564 10569 10571 10575 10580 10585 10589 10593 10596 10600 10604 10608 10613 10621 10627 10631 10635 10635 10641 10646 10648 10653 10656 10662 10669 10672 10677 10679 10678 10679 10681 10683 10685 10685 10697 10711 10711 10707 10707 10704 10698 10698 10701 10704 10710 10721 10737 10749 10750 10748 10751 10755 10757
10470 10463 10456 10449 10444 10439 10435 10433 10431 10430 10430 10430 10431 10431 10431 10433 10438 10443 10448 10453 10460 10469 10474 10480 10487 10498 10513 10513 10506 10511 10519 10521 10527 10541 10553 10558 10561 10560 10563 10572 10578 10581 10586 10588 10592 10598 10603 10609 10617 10621 10625 10627 10630 10637 10640 10643 10650 10654 10659 10666 10668 10670 10673 10672 10674 10675 10676 10677 10681 10692 10703 10703 10699 10698 10692 10688 10691 10694 10700 10710 10720 10733 10743 10743 10744 10746 10750 10751
10453 10444 10437 10430 10425 10420 10416 10413 10412 10411 10411 10411 10411 10411 10412 10415 10421 10425 10429 10435 10443 10451 10456 10461 10468 10484 10495 10493 10493 10497 10501 10509 10519 10533 10544 10547 10549 10548 10553 10565 10569 10572 10576 10579 10586 10594 10599 10606 10612 10615 10619 10622 10626 10631 10634 10642 10648 10651 10656 10660 10662 10665 10667 10667 10667 10669 10670 10672 10677 10684 10693 10696 10692 10687 10681 10680 10684 10689 10699 10709 10717 10727 10735 10738 10740 10742 10744 10744
10436 10428 10420 10413 10406 10402 10398 10395 10394 10394 10395 10393 10392 10392 10393 10398 10404 10407 10412 10420 10427 10432 10438 10442 10451 10469 10476 10475 10480 10482 10487 10499 10509 10521 10531 10535 10537 10537 10545 10556 10558 10561 10566 10572 10583 10589 10595 10602 10605 10609 10614 10619 10623 10627 10634 10641 10642 10643 10648 10652 10655 10658 10661 10662 10661 10661 10663 10666 10671 10677 10685 10688 10683 10677 10674 10674 10677 10686 10700 10708 10712 10721 10728 10733 10736 10737 10737 10736
10421 10412 10404 10396 10390 10385 10381 10378 10378 10378 10378 10376 10375 10376 10377 10382 10387 10391 10397 10405 10410 10414 10419 10426 10436 10451 10457 10459 10464 10467 10475 10487 10495 10507 10517 10521 10523 10525 10534 10544 10549 10554 10559 10569 10579 10583 10589 10595 10600 10607 10612 10617 10620 10624 10631 10632 10631 10635 10640 10644 10648 10651 10655 10655 10654 10654 10656 10660 10666 10673 10679 10679 10674 10670 10667 10668 10673 10684 10697 10704 10708 10715 10721 10728 10731 10731 10730 10730
10407 10398 10389 10382 10375 10370 10366 10362 10362 10363 10362 10359 10359 10361 10363 10366 10370 10376 10383 10388 10393 10397 10403 10411 10420 10433 10441 10442 10446 10453 10461 10472 10483 10494 10504 10509 10512 10514 10522 10533 10541 10548 10555 10565 10572 10575 10582 10589 10598 10605 10608 10610 10613 10617 10621 10622 10623 10629 10633 10638 10642 10645 10649 10650 10649 10650 10650 10656 10663 10668 10671 10670 10667 10663 10660 10662 10670 10683 10694 10699 10704 10710 10716 10722 10725 10725 10725 10726
10394 10384 10376 10368 10362 10357 10352 10349 10349 10348 10346 10345 10345 10346 10348 10352 10355 10361 10369 10374 10378 10382 10388 10396 10404 10416 10422 10421 10428 10438 10445 10459 10471 10480 10491 10498 10500 10505 10514 10524 10535 10543 10551 10557 10560 10565 10575 10587 10597 10599 10599 10601 10604 10608 10613 10615 10618 10623 10628 10633 10636 10640 10644 10644 10645 10646 10646 10652 10658 10661 10663 10664 10660 10656 10654 10660 10669 10681 10691 10694 10698 10705 10711 10716 10718 10720 10722 10723
10381 10372 10364 10357 10351 10346 10341 10339 10337 10335 10333 10333 10333 10333 10335 10339 10342 10349 10357 10361 10362 10366 10372 10377 10386 10401 10405 10403 10412 10424 10434 10447 10457 10464 10477 10486 10490 10496 10504 10514 10527 10536 10539 10543 10550 10559 10573 10585 10589 10588 10590 10592 10596 10602 10607 10610 10613 10619 10623 10628 10632 10635 10637 10638 10640 10641 10641 10647 10652 10653 10657 10658 10653 10649 10653 10661 10669 10679 10687 10690 10694 10700 10706 10710 10712 10715 10717 10719
10369 10360 10353 10346 10340 10336 10332 10330 10327 10323 10322 10322 10322 10322 10325 10327 10332 10338 10345 10349 10347 10346 10352 10361 10373 10389 10391 10385 10394 10412 10425 10433 10441 10453 10466 10476 10482 10485 10492 10506 10517 10522 10525 10535 10547 10557 10570 10579 10578 10578 10582 10585 10591 10597 10602 10605 10609 10615 10620 10625 10628 10629 10631 10633 10636 10635 10635 10642 10647 10646 10650 10651 10647 10648 10654 10662 10668 10675 10682 10686 10690 10695 10701 10705 10707 10710 10711 10713
10359 10350 10343 10336 10331 10327 10324 10321 10317 10314 10313 10313 10313 10313 10314 10316 10322 10327 10332 10336 10331 10325 10336 10353 10362 10370 10369 10364 10380 10404 10414 10417 10427 10441 10454 10464 10470 10473 10484 10497 10504 10510 10520 10531 10540 10549 10561 10566 10564 10568 10573 10578 10585 10591 10597 10602 10606 10611 10617 10622 10623 10623 10625 10627 10628 10626 10626 10635 10641 10640 10644 10645 10645 10650 10654 10659 10666 10670 10675 10681 10685 10689 10695 10700 10702 10704 10705 10707
10349 10341 10334 10328 10323 10319 10316 10312 10308 10306 10305 10304 10304 10304 10305 10306 10311 10316 10318 10321 10315 10310 10327 10344 10346 10349 10350 10355 10377 10396 10400 10405 10418 10431 10442 10451 10457 10463 10474 10484 10494 10506 10515 10523 10530 10541 10551 10553 10552 10559 10566 10572 10578 10586 10593 10598 10601 10606 10612 10616 10615 10615 10618 10618 10619 10618 10621 10632 10637 10637 10641 10642 10644 10650 10652 10656 10661 10664 10668 10675 10680 10684 10691 10694 10696 10697 10698 10702
10341 10333 10327 10322 10316 10311 10309 10305 10301 10299 10297 10297 10296 10297 10297 10299 10303 10306 10306 10306 10303 10304 10319 10331 10332 10334 10340 10352 10370 10381 10388 10397 10405 10416 10429 10439 10446 10454 10464 10476 10490 10500 10506 10512 10521 10531 10541 10543 10545 10554 10561 10566 10574 10582 10589 10592 10596 10602 10606 10607 10606 10608 10610 10610 10612 10614 10620 10629 10631 10633 10639 10639 10641 10647 10650 10651 10654 10657 10662 10669 10675 10680 10686 10687 10689 10691 10692 10696
10335 10327 10321 10316 10310 10305 10302 10299 10295 10292 10291 10290 10290 10290 10291 10292 10294 10295 10295 10295 10294 10300 10311 10318 10322 10325 10333 10349 10363 10374 10382 10384 10389 10405 10421 10429 10435 10443 10456 10470 10482 10489 10494 10501 10514 10528 10535 10536 10540 10548 10555 10563 10573 10580 10585 10588 10593 10598 10598 10597 10599 10602 10603 10603 10605 10610 10617 10621 10625 10631 10636 10637 10640 10645 10646 10647 10651 10654 10659 10666 10670 10675 10679 10679 10682 10685 10686 10689
10330 10322 10315 10310 10305 10300 10296 10293 10290 10287 10285 10284 10284 10284 10284 10285 10286 10287 10288 10287 10288 10296 10304 10309 10316 10321 10329 10343 10354 10361 10366 10368 10380 10398 10407 10414 10422 10433 10448 10462 10472 10479 10485 10496 10513 10523 10525 10528 10535 10544 10552 10562 10571 10576 10578 10582 10588 10590 10588 10590 10593 10595 10596 10595 10599 10606 10610 10614 10622 10630 10633 10636 10640 10642 10641 10644 10650 10653 10657 10662 10665 10668 10671 10672 10676 10680 10681 10685
10326 10318 10311 10305 10301 10297 10293 10289 10286 10283 10281 10279 10279 10279 10279 10280 10280 10281 10282 10282 10285 10294 10299 10304 10312 10317 10324 10336 10343 10346 10349 10357 10372 10383 10389 10401 10412 10423 10437 10450 10458 10466 10476 10491 10505 10509 10515 10523 10529 10536 10547 10558 10564 10565 10569 10576 10582 10580 10578 10583 10587 10588 10589 10590 10596 10602 10605 10612 10623 10627 10630 10634 10638 10640 10639 10642 10649 10652 10652 10656 10658 10661 10665 10668 10672 10675 10677 10682
10322 10315 10307 10301 10297 10293 10290 10286 10282 10279 10277 10276 10275 10275 10275 10275 10276 10277 10278 10280 10285 10292 10296 10301 10309 10315 10320 10328 10334 10336 10340 10349 10360 10369 10381 10394 10402 10412 10426 10437 10446 10457 10469 10484 10493 10500 10509 10514 10518 10530 10543 10550 10552 10554 10561 10569 10572 10569 10571 10578 10580 10582 10584 10588 10594 10597 10603 10616 10623 10624 10628 10631 10634 10638 10638 10639 10644 10647 10646 10649 10653 10657 10661 10664 10667 10670 10673 10678
10319 10312 10305 10298 10294 10290 10287 10283 10279 10276 10274 10272 10272 10272 10271 10272 10272 10273 10275 10279 10284 10290 10295 10300 10306 10311 10315 10322 10327 10330 10335 10344 10353 10364 10376 10386 10394 10405 10418 10428 10439 10451 10463 10477 10488 10496 10501 10506 10517 10531 10537 10539 10542 10547 10555 10561 10562 10562 10566 10572 10574 10577 10581 10586 10591 10596 10606 10618 10619 10619 10624 10627 10632 10636 10635 10635 10638 10641 10642 10645 10649 10653 10656 10659 10663 10666 10670 10674
10317 10310 10303 10297 10292 10288 10285 10280 10277 10274 10271 10270 10269 10269 10268 10268 10269 10271 10273 10277 10282 10287 10292 10297 10301 10305 10310 10315 10319 10324 10332 10342 10352 10361 10370 10381 10393 10405 10417 10428 10439 10450 10463 10477 10487 10491 10497 10507 10517 10523 10526 10531 10537 10544 10550 10555 10558 10559 10562 10567 10571 10575 10580 10586 10591 10598 10608 10614 10612 10614 10620 10626 10631 10632 10631 10632 10634 10637 10639 10641 10644 10647 10650 10655 10659 10663 10665 10669
10316 10309 10302 10296 10291 10286 10283 10279 10275 10272 10270 10268 10267 10266 10267 10267 10267 10269 10272 10275 10279 10283 10287 10290 10293 10296 10301 10306 10312 10320 10330 10339 10348 10356 10364 10376 10387 10398 10411 10423 10433 10447 10462 10473 10479 10483 10492 10501 10507 10513 10520 10528 10535 10541 10549 10555 10558 10558 10560 10566 10571 10574 10580 10586 10591 10597 10604 10606 10606 10610 10616 10623 10627 10626 10627 10628 10630 10633 10634 10636 10639 10642 10645 10651 10657 10660 10661 10664
10315 10308 10301 10295 10290 10285 10281 10277 10273 10270 10269 10267 10266 10264 10264 10265 10267 10268 10271 10273 10276 10278 10281 10283 10286 10291 10296 10302 10310 10319 10327 10335 10343 10350 10359 10370 10380 10391 10404 10416 10428 10442 10453 10461 10468 10476 10487 10496 10505 10514 10521 10527 10533 10540 10546 10550 10551 10552 10556 10562 10567 10572 10578 10582 10586 10592 10598 10600 10601 10604 10612 10619 10622 10622 10622 10623 10625 10628 10630 10633 10636 10639 10643 10649 10655 10657 10656 10658
10315 10308 10301 10295 10290 10285 10280 10276 10272 10269 10268 10267 10265 10264 10262 10262 10264 10266 10268 10270 10272 10274 10276 10279 10284 10289 10296 10302 10309 10316 10323 10331 10338 10345 10355 10367 10378 10390 10403 10414 10426 10438 10447 10456 10464 10472 10483 10494 10502 10509 10515 10521 10528 10533 10538 10541 10542 10544 10549 10556 10565 10571 10573 10575 10580 10587 10592 10594 10594 10599 10607 10614 10617 10619 10618 10619 10622 10626 10628 10631 10634 10637 10641 10646 10650 10651 10649 10652
10315 10309 10302 10295 10291 10286 10281 10276 10273 10269 10267 10266 10265 10264 10263 10261 10262 10264 10266 10267 10269 10272 10275 10278 10283 10289 10294 10300 10306 10312 10319 10326 10334 10343 10353 10364 10374 10385 10398 10409 10420 10431 10443 10454 10461 10469 10480 10488 10492 10498 10506 10514 10521 10525 10531 10536 10538 10540 10548 10559 10564 10563 10563 10569 10576 10582 10586 10588 10590 10595 10602 10609 10613 10615 10614 10615 10619 10623 10626 10628 10631 10634 10638 10641 10643 10644 10643 10648
10315 10309 10302 10295 10290 10286 10282 10277 10273 10269 10267 10266 10265 10265 10264 10263 10263 10264 10265 10266 10267 10270 10273 10278 10283 10288 10293 10298 10304 10310 10317 10324 10332 10341 10350 10360 10369 10380 10391 10401 10412 10425 10437 10446 10454 10465 10474 10480 10485 10492 10499 10506 10512 10516 10523 10529 10531 10537 10550 10557 10553 10551 10558 10566 10572 10577 10582 10585 10587 10592 10598 10604 10608 10611 10612 10612 10615 10619 10622 10623 10626 10630 10632 10635 10637 10638 10640 10646
10316 10309 10303 10296 10290 10286 10282 10277 10273 10270 10268 10267 10266 10266 10265 10265 10265 10265 10265 10266 10267 10269 10272 10276 10282 10287 10292 10298 10304 10310 10317 10324 10332 10339 10347 10357 10366 10377 10388 10397 10407 10419 10427 10435 10446 10456 10463 10469 10477 10485 10492 10498 10502 10506 10515 10522 10527 10535 10544 10542 10540 10549 10560 10564 10568 10575 10579 10581 10585 10589 10595 10601 10604 10607 10609 10610 10611 10615 10618 10620 10622 10624 10626 10629 10631 10633 10637 10642
10318 10311 10304 10298 10292 10287 10283 10279 10275 10273 10270 10268 10267 10267 10266 10266 10266 10266 10266 10266 10268 10269 10272 10276 10281 10287 10292 10297 10303 10310 10317 10323 10330 10337 10346 10354 10363 10373 10383 10393 10403 10412 10419 10428 10439 10447 10453 10461 10471 10479 10484 10487 10492 10501 10513 10521 10525 10531 10534 10534 10540 10550 10556 10559 10566 10571 10574 10577 10581 10585 10590 10596 10599 10603 10606 10607 10609 10611 10614 10617 10618 10619 10622 10624 10625 10629 10633 10637
10320 10314 10307 10301 10295 10290 10286 10282 10278 10275 10273 10271 10269 10269 10268 10268 10268 10268 10268 10268 10270 10272 10274 10277 10281 10287 10292 10297 10303 10308 10314 10320 10327 10335 10343 10351 10360 10369 10377 10387 10396 10404 10412 10423 10432 10438 10446 10457 10466 10472 10474 10479 10492 10505 10514 10518 10522 10527 10532 10535 10541 10547 10550 10556 10561 10565 10568 10572 10575 10579 10585 10589 10593 10598 10603 10605 10606 10608 10610 10612 10614 10615 10617 10619 10621 10625 10629 10633
10321 10315 10310 10304 10297 10292 10288 10284 10281 10278 10275 10273 10272 10271 10270 10270 10269 10270 10270 10271 10272 10274 10276 10279 10282 10286 10291 10295 10300 10305 10310 10316 10324 10332 10341 10350 10359 10366 10374 10383 10389 10397 10407 10416 10424 10433 10443 10452 10460 10466 10472 10483 10497 10504 10508 10512 10518 10522 10526 10531 10536 10541 10546 10552 10557 10560 10563 10566 10570 10574 10579 10583 10587 10595 10600 10602 10603 10604 10605 10608 10609 10611 10613 10615 10618 10622 10625 10629
10324 10317 10311 10306 10300 10295 10290 10286 10282 10280 10278 10275 10274 10274 10273 10272 10272 10272 10273 10274 10275 10276 10278 10279 10282 10285 10288 10293 10298 10304 10309 10315 10322 10329 10338 10347 10356 10363 10370 10376 10383 10393 10402 10410 10418 10428 10437 10446 10454 10464 10474 10484 10491 10495 10500 10506 10510 10513 10517 10523 10529 10534 10541 10547 10552 10554 10557 10560 10564 10569 10573 10577 10584 10592 10597 10598 10599 10599 10600 10602 10604 10607 10610 10613 10616 10619 10623 10626
10325 10319 10314 10309 10303 10298 10294 10289 10285 10283 10280 10278 10277 10276 10276 10275 10274 10274 10275 10276 10277 10278 10280 10281 10283 10286 10290 10294 10299 10304 10309 10315 10321 10327 10335 10343 10350 10357 10363 10369 10378 10388 10396 10404 10413 10420 10429 10440 10450 10460 10468 10474 10480 10487 10494 10499 10502 10506 10512 10519 10525 10530 10536 10541 10544 10547 10551 10555 10560 10565 10570 10575 10582 10588 10592 10593 10594 10594 10595 10597 10600 10604 10608 10610 10613 10615 10618 10621
10326 10321 10316 10311 10306 10300 10296 10292 10289 10286 10283 10281 10280 10279 10279 10278 10277 10277 10277 10278 10279 10280 10282 10284 10286 10288 10293 10297 10301 10305 10310 10316 10321 10326 10331 10338 10345 10352 10358 10364 10373 10383 10392 10400 10408 10417 10427 10438 10447 10455 10460 10466 10474 10481 10488 10494 10501 10506 10511 10517 10522 10527 10532 10535 10539 10544 10548 10552 10557 10562 10566 10572 10577 10582 10586 10588 10589 10590 10591 10593 10597 10602 10606 10607 10609 10611 10613 10615
10329 10323 10318 10314 10308 10303 10298 10295 10292 10289 10286 10284 10283 10282 10282 10281 10280 10280 10280 10280 10281 10282 10284 10286 10288 10291 10295 10299 10302 10307 10312 10317 10321 10326 10331 10337 10342 10347 10353 10361 10370 10379 10388 10395 10403 10414 10426 10437 10445 10453 10461 10469 10478 10486 10493 10500 10504 10507 10510 10516 10521 10525 10529 10533 10537 10542 10545 10549 10553 10557 10562 10567 10572 10576 10580 10584 10586 10586 10587 10590 10594 10598 10602 10604 10605 10607 10607 10609
10330 10326 10321 10316 10311 10306 10302 10298 10295 10292 10289 10287 10286 10285 10285 10285 10284 10283 10283 10284 10284 10286 10287 10289 10291 10294 10297 10299 10303 10308 10313 10318 10323 10328 10333 10338 10342 10347 10353 10361 10370 10376 10382 10390 10400 10412 10424 10433 10441 10449 10458 10467 10477 10486 10493 10498 10501 10504 10508 10513 10518 10522 10527 10531 10535 10540 10543 10546 10549 10553 10558 10563 10566 10570 10576 10580 10582 10582 10584 10587 10590 10594 10598 10600 10601 10603 10603 10605
10331 10327 10322 10318 10314 10309 10305 10302 10298 10295 10293 10291 10290 10289 10288 10288 10287 10287 10287 10287 10288 10289 10290 10292 10293 10295 10298 10301 10305 10309 10314 10318 10323 10329 10334 10338 10343 10350 10356 10363 10369 10374 10380 10390 10401 10411 10419 10428 10437 10445 10452 10460 10468 10475 10481 10487 10492 10496 10501 10507 10513 10518 10522 10528 10532 10536 10537 10540 10545 10550 10555 10558 10562 10567 10571 10575 10577 10578 10580 10583 10585 10589 10593 10595 10597 10599 10600 10603
10334 10329 10325 10322 10317 10313 10308 10305 10302 10299 10296 10294 10293 10292 10291 10291 10291 10291 10291 10291 10291 10292 10293 10295 10296 10298 10300 10304 10307 10311 10315 10319 10323 10329 10334 10339 10345 10353 10359 10363 10367 10372 10380 10389 10399 10407 10415 10425 10435 10443 10450 10456 10461 10466 10472 10479 10484 10488 10493 10499 10505 10511 10517 10522 10525 10527 10530 10536 10542 10547 10551 10555 10558 10563 10567 10570 10572 10574 10576 10579 10581 10585 10588 10590 10593 10595 10598 10601
10338 10332 10327 10324 10320 10315 10311 10308 10305 10302 10300 10298 10296 10295 10294 10293 10293 10293 10293 10293 10293 10294 10296 10298 10299 10301 10303 10306 10309 10313 10317 10320 10324 10329 10334 10339 10346 10353 10359 10361 10365 10371 10380 10387 10395 10404 10414 10424 10432 10440 10446 10451 10455 10460 10467 10474 10479 10483 10487 10492 10498 10504 10509 10513 10515 10518 10525 10532 10538 10544 10548 10551 10555 10560 10563 10566 10568 10570 10572 10575 10577 10580 10583 10586 10589 10592 10595 10599
10338 10333 10329 10325 10322 10318 10314 10311 10308 10305 10303 10301 10299 10298 10297 10296 10295 10295 10295 10296 10296 10296 10297 10299 10302 10304 10306 10308 10310 10314 10318 10322 10326 10330 10335 10341 10347 10352 10356 10361 10367 10372 10379 10386 10396 10405 10414 10423 10430 10436 10442 10447 10451 10457 10464 10470 10476 10480 10484 10488 10494 10499 10503 10506 10509 10514 10521 10528 10534 10540 10544 10548 10553 10557 10560 10563 10565 10565 10568 10571 10574 10576 10579 10581 10585 10588 10592 10595
10339 10335 10330 10327 10324 10320 10316 10313 10310 10308 10305 10303 10302 10301 10300 10299 10298 10298 10298 10298 10299 10299 10300 10302 10304 10306 10308 10310 10312 10315 10319 10324 10328 10332 10336 10341 10346 10351 10357 10365 10372 10375 10380 10389 10400 10407 10414 10421 10428 10434 10439 10443 10447 10453 10461 10468 10473 10476 10481 10486 10492 10496 10500 10504 10508 10513 10519 10525 10531 10536 10540 10543 10548 10551 10555 10558 10560 10561 10564 10567 10570 10573 10575 10578 10581 10584 10588 10591
10341 10337 10333 10328 10325 10322 10318 10315 10313 10310 10308 10306 10304 10303 10302 10302 10301 10301 10300 10301 10301 10302 10303 10304 10306 10309 10311 10313 10315 10318 10321 10324 10328 10332 10337 10342 10347 10352 10360 10368 10374 10379 10385 10394 10401 10407 10413 10420 10426 10431 10436 10440 10446 10452 10459 10464 10470 10475 10480 10485 10491 10495 10500 10503 10507 10512 10518 10524 10529 10533 10536 10540 10544 10547 10550 10553 10555 10558 10560 10562 10566 10569 10571 10575 10578 10580 10583 10586